Hourly Data Report for July 09, 2021

HALIFAX STANFIELD INT'L A
NOVA SCOTIA
Current Station Operator: NAVCAN

44°52'52.000" N
63°30'31.000" W
145.40 m
8202251
71395
YHZ

Download Data

Hourly Data (July 2021)
Hourly Data Report for July 9, 2021
TIME
LST
Temp Definition
°C
Dew Point Definition
°C
Rel Hum Definition
%
Precip. Amount Definition
mm

Wind Dir Definition
10's deg

Wind Spd Definition
km/h
Visibility Definition
km
Stn Press Definition
kPa
Hmdx Definition


Wind Chill Definition


Weather Definition


00:00 15.2 10.7 74   14 22 24.1 100.57     LegendNANA
01:00 15.5 10.4 72   15 26 24.1 100.55     Rain Showers
02:00 15.1 11.7 80   14 25 24.1 100.46     Cloudy
03:00 13.7 13.4 98   13 22 6.4 100.42     Drizzle, Fog
04:00 14.0 14.0 100   14 24 0.8 100.35     Drizzle, Fog
05:00 14.5 14.5 100   13 21 0.4 100.30     Drizzle, Fog
06:00 15.1 15.1 100   15 18 0.2 100.29     Fog
07:00 16.0 16.0 100   17 10 1.2 100.28     Rain, Fog
08:00 17.2 17.2 100   16 14 1.2 100.23     Rain Showers, Fog
09:00 18.5 18.5 100   16 18 0.8 100.18     Rain Showers, Fog
10:00 19.9 19.9 100   20 20 0.4 100.21     Fog
11:00 19.9 19.9 100   19 17 9.7 100.17     Rain Showers, Fog
12:00 21.5 20.5 94   22 22 16.1 100.19 29   LegendNANA
13:00 21.1 20.8 98   21 14 12.9 100.19 29   LegendNANA
14:00 20.8 20.8 100   19 16 4.8 100.17 29   Fog
15:00 20.6 20.6 100   19 18 0.4 100.11 29   Rain Showers, Fog
16:00 20.7 20.7 100   17 19 0.4 100.07 29   Drizzle, Fog
17:00 20.3 20.3 100   19 18 0.8 100.01 28   Fog
18:00 19.4 19.4 100   15 13 0.4 99.97     Fog
19:00 18.7 18.7 100   15 16 0.2 99.90     Fog
20:00 18.8 18.8 100   15 18 0.2 99.78     Fog
21:00 19.3 19.3 100   16 25 2.4 99.70     Fog
22:00 19.3 19.3 100   16 35 4.8 99.48     Fog
23:00 19.5 19.5 100   17 37 12.9 99.31     Rain Showers

Notes on Data Quality.

Legend

  • E = Estimated
  • M = Missing
  • NA = Not Available*
  • [empty] = Indicates an unobserved value
Date modified: